Location: Linz
(48.3300°N, 14.3000°E)
Time: 09:13:12
(UTC+01:00)

Vanguard 1 Rocket - All Passes

Search period start: 21 November 2017 00:00
Search period end: 01 December 2017 00:00
Orbit: 655 x 4222 km, 34.3° (Epoch: 18 November)

Date Brightness Start Highest point End Pass type
(mag) Time Alt. Az. Time Alt. Az. Time Alt. Az.
21 Nov - 00:33:31 10° WSW 00:58:22 55° S 01:16:21 10° ESE visible
21 Nov - 03:05:38 10° W 03:27:10 43° SSW 03:40:36 10° SE visible
21 Nov - 05:41:51 10° W 05:51:58 17° SW 05:59:30 10° SSW visible
21 Nov - 18:38:57 10° SE 18:47:49 14° ESE 18:57:24 10° E visible
21 Nov - 20:54:16 10° SSW 21:14:21 37° SE 21:35:23 10° E visible
21 Nov - 23:19:54 10° WSW 23:44:15 54° S 00:04:30 10° ESE visible
22 Nov - 01:50:22 10° W 02:14:20 51° SSW 02:30:16 10° SE visible
22 Nov - 04:24:16 10° W 04:41:03 28° SW 04:52:09 10° S visible
22 Nov - 19:44:36 10° S 20:01:24 28° SE 20:20:26 10° E visible
22 Nov - 22:07:19 10° SW 22:30:03 49° SSE 22:51:52 10° E visible
23 Nov - 00:35:50 10° WSW 01:00:41 55° S 01:19:10 10° ESE visible
23 Nov - 03:08:07 10° W 03:29:17 39° SSW 03:43:02 10° SSE visible
23 Nov - 05:46:22 10° W 05:53:44 13° WSW 05:59:45 10° SW visible
23 Nov - 18:37:17 10° SSE 18:49:17 18° SE 19:03:05 10° E visible
23 Nov - 20:55:53 10° SSW 21:16:12 42° SSE 21:38:20 10° E visible
23 Nov - 23:22:09 10° WSW 23:46:29 56° S 00:07:18 10° ESE visible
24 Nov - 01:52:47 10° W 02:16:33 48° SSW 02:32:53 10° SE visible
24 Nov - 04:27:16 10° W 04:42:55 24° SW 04:53:52 10° S visible
24 Nov - 19:45:43 10° SSW 20:03:04 33° SE 20:23:41 10° E visible
24 Nov - 22:09:26 10° SW 22:32:08 53° SSE 22:54:40 10° E visible
25 Nov - 00:38:14 10° WSW 01:02:56 54° S 01:21:53 10° ESE visible
25 Nov - 03:10:43 10° W 03:31:16 36° SW 03:45:15 10° SSE visible
25 Nov - 18:37:17 10° S 18:50:48 22° SE 19:07:18 10° E visible
25 Nov - 20:57:48 10° SW 21:18:08 46° SSE 21:41:09 10° E visible
25 Nov - 23:24:32 10° WSW 23:48:42 57° S 00:10:02 10° ESE visible
26 Nov - 01:55:16 10° W 02:18:39 45° SSW 02:35:21 10° SE visible
26 Nov - 04:30:41 10° W 04:44:38 20° SW 04:55:05 10° SSW visible
26 Nov - 17:33:01 10° SE 17:39:24 12° ESE 17:46:33 10° ESE visible
26 Nov - 19:47:16 10° SSW 20:04:48 37° SE 20:26:38 10° E visible
26 Nov - 22:11:46 10° WSW 22:34:17 55° S 22:57:22 10° E visible
27 Nov - 00:40:43 10° W 01:05:07 53° SSW 01:24:27 10° SE visible
27 Nov - 03:13:30 10° W 03:33:07 31° SW 03:47:09 10° SSE visible
27 Nov - 18:38:08 10° S 18:52:23 27° SE 19:10:48 10° E visible
27 Nov - 20:59:58 10° SW 21:20:07 50° SSE 21:43:51 10° E visible
27 Nov - 23:27:02 10° WSW 23:50:55 56° S 00:12:40 10° ESE visible
28 Nov - 01:57:52 10° W 02:20:37 42° SSW 02:37:35 10° SSE visible
28 Nov - 04:34:49 10° W 04:46:14 16° WSW 04:55:27 10° SSW visible
28 Nov - 17:31:24 10° SSE 17:40:53 16° ESE 17:52:29 10° E visible
28 Nov - 19:49:11 10° SSW 20:06:39 41° SSE 20:29:24 10° E visible
28 Nov - 22:14:13 10° WSW 22:36:27 56° S 23:00:00 10° ESE visible
29 Nov - 00:43:17 10° W 01:07:13 50° SSW 01:26:53 10° SE visible
29 Nov - 03:16:32 10° W 03:34:49 27° SW 03:48:40 10° S visible
29 Nov - 18:39:34 10° SSW 18:54:05 31° SE 19:13:53 10° E visible
29 Nov - 21:02:20 10° SW 21:22:13 53° SSE 21:46:28 10° E visible
29 Nov - 23:29:37 10° W 23:53:06 55° S 00:15:11 10° ESE visible
30 Nov - 02:00:36 10° W 02:22:29 37° SW 02:39:34 10° SSE visible
30 Nov - 04:40:37 10° W 04:47:44 12° WSW 04:54:03 10° SW visible
30 Nov - 17:31:39 10° SSE 17:42:27 20° SE 17:56:42 10° E visible
30 Nov - 19:51:22 10° SW 20:08:36 45° SSE 20:32:02 10° E visible
30 Nov - 22:16:49 10° WSW 22:38:39 57° S 23:02:33 10° ESE visible
